SCP
0 0 0 0 0 0 0 0 0 0 0 0 0 0 0 0 0 0 0 0 0 0 0 0 0 0 0 0 0 0 0 0 0 0 0 0 0 0 0 1 1 0 0 0 0 0 0 0 0
0 0 0 0 0 0 0 0 0 0 0 0 0 0 0 0 0 0 0 0 0 0 0 0 0 0 0 0 0 0 0 0 0 0 0 0 0 0 0 0 0 0 0 0 0 0 0 0 0
0 0 0 0 0 0 0 0 0 0 0 0 0 0 0 0 0 0 0 0 0 0 0 0 0 0 0 0 0 0 0 0 0 0 0 0 0 0 0 0 0 0 0 0 0 0 0 0 0
0 0 0 0 0 0 0 0 0 0 0 0 0 0 0 0 0 0 0 0 0 0 0 0 0 0 0 0 0 0 0 0 0 0 0 0 0 0 0 0 0 0 0 0 0 0 0 0 0
0 0 0 0 0 0 0 0 0 0 0 0 0 0 0 0 0 0 0 0 0 0 0 0 0 0 0 0 0 0 0 0 0 0 0 0 0 0 0 0 0 0 0 0 0 0 0 0 0
0 0 0 0 0 0 0 0 0 0 0 0 0 0 0 0 0 0 0 0 0 0 0 0 0 0 0 0 0 0 0 0 0 0 0 0 0 0 0 0 0 0 0 0 0 0 0 0 0
0 0 0 0 0 0 0 0 0 0 0 0 0 0 0 0 0 0 0 0 0 0 0 0 0 0 0 0 0 0 0 0 0 0 0 0 0 0 0 0 0 0 0 0 0 0 0 0 0
0 0 0 0 0 0 0 0 0 0 0 0 0 0 0 0 0 0 0 0 0 0 0 0 0 0 0 0 0 0 0 0 0 0 0 0 0 0 0 0 0 0 0 0 0 0 0 0 0
0 0 0 0 0 0 0 0 0 0 0 0 0 0 0 0 0 0 0 0 0 0 0 0 0 0 0 0 0 0 0 0 0 0 0 0 0 0 0 0 0 0 0 0 0 0 0 0 0
0 0 0 0 0 0 0 0 0 0 0 0 0 0 0 0 0 0 0 0 0 0 0 0 0 0 0 0 0 0 0 0 0 0 0 0 0 0 0 0 0 0 0 0 0 0 0 0 0
0 0 0 0 0 0 0 0 0 0 0 0 0 0 0 0 0 0 0 0 0 0 0 0 0 0 0 0 0 0 0 0 0 0 0 0 0 0 0 0 0 0 0 0 0 0 0 0 0
0 0 0 0 0 0 0 0 0 0 0 0 0 0 0 0 0 0 0 0 0 0 0 0 0 0 0 0 0 0 0 0 0 0 0 0 0 0 0 0 0 0 0 0 0 0 0 0 0
0 0 0 0 0 0 0 0 0 0 0 0 0 0 0 0 0 0 0 0 0 0 0 0 0 0 0 0 0 0 0 0 0 0 0 0 0 0 0 0 0 0 0 0 0 0 0 0 0
0 0 0 0 0 0 0 0 0 0 0 0 0 0 0 0 0 0 0 0 0 0 0 0 0 0 0 0 0 0 0 0 0 0 0 0 0 0 0 0 0 0 0 0 0 0 0 0 0
0 0 0 0 0 0 0 0 0 0 0 0 0 0 0 0 0 0 0 0 0 0 0 -0 0 0 0 0 0 0 0 0 0 0 0 0 0 0 0 0 0 0 0 0 0 0 0 0 0
0 0 0 0 0 0 0 0 0 0 0 0 0 0 0 0 0 0 0 0 0 0 0 -0 -0 -0 0 0 0 0 0 0 0 0 0 0 0 0 0 0 0 0 0 0 0 0 0 0 0
0 0 0 0 0 0 0 0 0 0 0 0 0 0 0 0 0 0 0 0 0 0 0 0 0 0 0 0 0 0 0 0 0 0 0 0 0 0 0 0 0 0 0 0 0 0 0 0 0
0 0 0 0 0 0 0 0 0 0 0 0 0 0 0 0 0 0 0 0 0 0 0 0 0 0 0 0 0 0 0 0 0 0 0 0 0 0 0 0 0 0 0 0 0 0 0 0 0
0 0 0 0 0 0 0 0 0 0 0 0 0 0 0 0 0 0 0 0 0 0 0 0 0 0 0 0 0 0 0 0 0 0 0 0 0 0 0 0 0 0 0 0 0 0 0 0 0
0 0 0 0 0 0 0 0 0 0 0 0 0 0 0 0 0 0 0 0 0 0 0 0 0 0 0 0 0 0 0 0 0 0 0 0 0 0 0 0 0 0 0 0 0 0 0 0 0
0 0 0 0 0 0 0 0 0 0 0 0 0 0 0 0 0 0 0 0 0 0 0 0 0 0 0 0 0 0 0 0 0 0 0 0 0 0 0 0 0 0 0 0 0 0 0 0 0
0 0 0 0 0 0 0 0 0 0 0 0 0 0 0 0 0 0 0 0 0 0 0 0 0 0 0 0 0 0 0 0 0 0 0 0 0 0 0 0 0 0 0 0 0 0 0 0 0
0 0 0 0 0 0 0 0 0 0 0 0 0 0 0 0 0 0 0 0 0 0 -0 -0 0 0 0 0 0 0 -0 0 0 0 0 0 0 0 -0 -0 0 0 0 0 0 0 0 0 0
0 0 0 0 0 0 0 0 0 0 0 0 0 0 0 0 0 0 0 0 0 0 -0 -0 0 0 0 0 0 0 0 0 0 0 0 0 0 0 -0 -0 0 0 0 0 0 0 0 0 0
0 0 0 0 0 0 0 0 0 0 0 0 0 0 0 0 0 0 0 0 0 0 -0 -0 0 0 0 0 0 0 0 0 0 0 0 0 0 0 -0 0 0 0 0 0 0 0 0 0 0
0 0 0 0 0 0 0 0 0 0 0 0 0 0 0 0 0 0 0 0 0 0 0 0 0 0 0 0 0 0 0 0 0 0 0 0 0 -0 -0 0 0 0 0 0 0 0 0 0 0
0 0 0 0 0 0 0 0 0 0 0 0 0 0 0 0 0 0 0 0 0 0 0 0 0 0 0 0 -0 0 0 0 0 0 0 0 0 0 0 0 0 0 0 0 0 0 0 0 0
0 0 0 0 0 0 0 0 0 0 0 0 0 0 0 0 0 0 0 0 0 0 0 0 0 0 0 0 0 0 0 0 0 0 0 0 0 0 0 0 0 0 0 0 0 0 0 0 0
0 0 0 0 0 0 0 0 0 0 0 0 0 0 0 0 0 0 0 0 0 0 0 0 0 0 0 0 0 0 0 0 0 0 0 0 0 0 0 0 0 0 0 0 0 0 0 0 0
0 0 0 0 0 0 0 0 0 0 0 0 0 0 0 0 0 0 0 0 0 0 0 0 0 0 0 0 0 0 0 0 0 0 0 0 0 0 0 0 0 0 0 0 0 0 0 0 0
Wind_Speed
6 3 2 4 6 4 2 4 2 1 2 1 3 7 8 5 4 5 3 1 3 3 2 5 9 9 9 10 10 9 8 8 7 7 6 5 4 3 3 3 3 3 4 4 5 5 5 6 7
2 2 4 5 5 2 3 3 1 1 2 3 4 5 6 5 3 5 1 0 4 4 3 5 9 9 9 9 9 9 8 7 7 6 6 5 4 3 2 2 2 2 3 3 4 4 5 5 6
2 1 4 4 3 4 3 2 3 1 2 3 4 5 5 4 3 3 2 2 5 4 3 5 9 9 9 9 9 9 9 8 7 6 6 5 4 2 2 1 1 1 2 2 3 3 4 5 5
3 4 4 4 2 3 3 3 3 1 4 5 4 5 3 2 2 3 2 5 6 4 3 4 8 8 9 9 9 9 9 9 7 6 6 5 5 3 2 2 1 0 1 2 2 2 3 4 5
4 4 4 1 3 2 2 2 1 2 2 3 4 4 2 3 2 4 4 5 6 3 2 3 7 8 8 9 9 9 10 9 9 7 7 6 6 5 3 3 2 1 1 2 2 3 3 4 5
4 4 4 3 3 2 1 1 1 3 2 2 4 4 1 1 2 3 4 5 5 4 2 3 6 7 8 8 8 9 9 10 9 9 8 7 6 6 4 3 3 2 1 2 2 2 3 3 4
4 4 4 4 3 2 2 1 2 3 3 1 3 5 2 2 1 3 4 4 4 4 3 3 3 4 6 7 8 9 9 10 10 10 9 8 8 7 6 5 4 3 2 2 2 2 2 3 3
4 4 2 1 3 3 1 1 1 3 2 0 3 6 4 5 2 3 4 4 4 3 3 2 2 2 2 3 6 9 9 9 10 10 10 9 8 7 7 6 5 4 4 3 3 3 3 3 3
4 4 2 2 4 3 0 2 1 1 2 2 1 4 5 4 3 4 4 4 3 3 2 2 2 2 2 2 4 5 7 8 8 7 9 8 4 3 4 5 6 5 5 4 4 3 2 2 3
4 3 4 2 3 3 1 1 1 1 2 1 1 1 2 3 4 3 2 2 1 1 1 1 1 1 1 2 2 1 2 3 4 3 4 3 3 3 4 6 7 6 5 5 5 5 3 1 1
3 5 3 1 1 2 1 0 0 3 3 5 5 5 3 3 3 3 2 2 2 1 1 0 1 1 1 1 1 1 1 1 2 3 3 3 3 2 2 2 3 3 3 2 3 3 2 1 1
3 2 3 3 1 1 1 1 1 4 6 5 6 7 5 4 4 4 4 3 2 1 1 1 1 0 0 0 0 1 1 1 1 2 3 2 2 2 2 1 1 1 1 2 2 2 2 2 2
2 2 1 2 1 1 1 2 2 5 6 4 4 5 5 5 4 4 4 4 3 2 2 2 1 1 1 1 1 1 1 1 2 2 2 2 1 2 2 2 1 1 1 2 2 2 3 3 3
2 1 1 2 2 2 3 4 3 8 5 4 5 6 7 6 6 4 4 4 4 3 3 2 2 1 1 1 1 1 1 2 2 2 3 2 2 2 2 2 2 2 2 2 2 3 3 3 3
2 1 3 3 3 2 1 5 7 8 4 5 6 6 6 6 6 6 6 6 5 4 3 2 2 1 1 2 2 2 2 2 2 2 3 3 3 3 3 3 2 2 2 2 2 3 2 3 3
2 2 2 4 3 2 3 7 7 5 6 7 6 6 6 6 6 6 6 5 5 4 3 3 2 1 2 2 3 2 2 2 3 3 3 4 4 4 3 3 3 3 2 2 2 2 2 3 3
1 1 3 4 3 3 4 8 7 3 6 7 7 7 6 6 5 5 5 5 5 4 3 3 2 2 2 3 3 3 3 3 3 3 3 4 5 5 3 3 4 3 2 2 3 2 2 3 3
5 4 3 5 3 3 5 10 10 5 6 7 7 6 6 6 7 6 5 4 4 3 3 3 3 3 3 2 2 2 3 3 3 4 4 5 5 5 4 4 5 3 3 3 3 3 3 3 3
4 3 4 5 2 2 8 12 12 8 6 8 7 7 7 8 6 5 4 3 3 2 2 3 3 3 2 1 2 2 3 3 3 4 5 5 5 5 4 5 4 4 4 4 4 3 3 3 2
3 3 4 4 1 2 6 12 11 7 8 8 9 9 8 6 4 4 3 3 3 3 3 3 4 4 3 3 3 3 3 3 4 4 4 5 5 5 5 5 4 4 4 5 4 3 3 3 2
4 5 4 3 4 3 4 9 5 4 3 4 6 6 6 8 7 5 4 4 3 3 4 4 5 5 4 4 2 2 2 2 2 3 3 4 5 5 5 5 5 5 5 5 5 5 5 4 3
4 3 3 1 1 4 1 6 8 3 3 4 5 5 5 6 5 5 4 4 4 5 5 5 5 5 5 4 3 4 4 5 5 4 4 5 6 6 6 6 6 6 5 5 6 5 5 5 4
4 1 1 1 2 2 1 3 11 2 4 6 6 6 6 6 6 5 5 5 5 5 5 5 5 5 5 5 4 5 5 5 5 4 6 6 5 6 6 7 6 6 5 6 7 6 6 5 6
3 4 4 4 4 3 5 5 10 5 7 5 5 6 6 5 5 4 4 4 4 4 4 4 5 6 5 5 5 5 7 7 6 7 6 5 4 5 6 7 6 7 6 7 8 7 8 7 7
4 5 4 4 3 7 3 5 12 8 6 7 7 7 6 5 4 4 4 5 5 5 5 5 5 6 6 6 6 6 7 7 8 8 6 6 5 5 6 7 6 7 7 8 8 8 8 9 9
4 6 7 6 5 5 2 8 10 6 5 5 5 5 5 5 5 5 6 6 6 6 6 5 5 6 6 6 6 6 7 6 6 7 6 6 6 6 7 7 7 8 8 9 8 8 9 8 9
5 4 4 5 1 3 7 8 11 3 2 1 2 3 5 5 5 6 6 6 6 6 6 6 6 6 6 6 6 6 6 6 7 7 6 6 6 6 7 8 8 8 8 9 9 8 9 8 9
4 6 5 5 4 5 6 6 7 5 5 3 4 5 5 5 5 6 6 6 6 6 6 5 5 6 6 6 5 5 6 6 6 6 7 7 7 7 7 8 8 8 8 9 9 8 8 9 9
5 4 4 4 4 5 5 9 7 7 7 7 7 6 5 5 6 6 5 5 5 5 5 4 5 5 5 5 5 6 6 6 6 6 7 7 7 7 8 8 9 9 9 9 8 9 9 10 10
5 6 7 6 5 5 4 11 6 5 5 6 6 5 5 5 6 5 5 4 4 4 4 4 5 5 5 5 5 6 6 6 6 7 7 7 7 8 8 8 9 9 9 8 8 9 9 10 11
Wind_Direction
347 352 74 61 61 59 237 253 237 76 69 28 79 95 100 93 112 145 211 222 126 108 80 63 57 53 49 47 43 44 45 45 41 40 41 46 56 71 95 116 127 139 148 150 150 148 147 153 157
355 15 62 63 92 124 259 262 187 190 174 145 81 83 79 77 83 116 175 189 113 99 79 65 60 55 50 46 42 39 37 38 36 32 30 31 37 51 71 104 131 145 156 162 162 161 157 157 162
349 74 84 82 127 179 203 221 186 165 47 79 69 57 83 106 120 138 195 136 96 83 71 67 63 56 49 44 41 36 32 28 28 27 23 19 18 20 28 48 130 150 157 164 170 172 169 169 169
60 56 61 85 202 229 196 210 198 125 39 45 87 62 55 38 147 157 144 111 99 85 70 70 66 58 50 44 40 35 30 25 20 18 17 11 5 2 358 349 339 223 173 169 174 179 180 181 178
65 81 83 111 227 235 217 237 173 108 79 42 85 89 52 338 87 119 120 107 107 98 66 65 65 58 49 43 40 35 28 22 18 12 8 7 4 356 349 345 328 319 231 201 195 192 187 188 187
63 78 110 194 218 217 268 300 95 84 86 65 91 104 144 296 85 94 99 99 110 113 84 59 58 54 47 41 37 32 24 20 15 12 6 2 0 357 350 346 343 331 309 263 219 210 199 195 192
109 117 167 192 181 198 234 17 93 109 82 77 123 116 173 277 194 102 93 91 91 88 73 51 43 45 43 39 34 28 23 20 17 12 8 3 360 356 351 350 346 341 325 308 274 242 228 216 208
128 115 177 208 176 205 251 69 95 116 136 44 112 141 186 228 202 94 76 72 71 67 63 53 43 43 38 33 33 27 22 20 17 12 9 5 359 354 354 353 349 347 342 325 308 268 247 234 233
95 87 190 208 178 191 206 90 2 48 94 41 71 166 186 176 131 87 65 46 52 46 36 44 39 32 26 21 26 24 17 14 10 7 5 1 345 338 341 347 353 353 351 338 325 303 271 256 247
92 150 210 207 182 172 141 123 167 69 52 42 27 54 126 127 114 112 113 105 89 24 352 22 27 24 25 13 23 8 6 360 358 353 350 347 342 340 349 342 348 349 346 339 326 319 294 281 247
140 181 192 203 179 141 124 348 212 144 219 206 187 176 160 135 135 147 160 171 186 209 255 321 347 7 30 7 354 344 344 343 344 344 342 341 340 337 344 340 337 336 341 336 321 315 299 273 258
150 206 180 187 170 127 169 212 260 204 217 207 188 171 165 172 187 181 180 195 195 199 235 243 262 346 303 291 287 278 300 315 319 319 329 341 337 328 322 321 319 326 317 308 308 294 290 282 263
179 202 170 185 175 195 215 239 245 247 236 215 176 169 185 194 206 202 184 188 189 199 221 229 236 234 254 238 262 287 266 270 279 297 310 315 316 302 295 297 290 294 305 291 289 292 279 268 269
181 181 230 231 219 225 219 257 240 250 224 199 189 198 206 205 204 201 192 196 204 208 218 225 235 235 243 239 242 251 257 263 272 281 289 290 283 289 280 282 275 272 272 279 270 274 274 255 253
93 47 315 242 203 212 143 277 232 238 191 198 210 213 217 220 209 203 204 201 204 206 212 221 233 234 245 248 245 251 248 255 258 264 275 277 272 278 275 265 262 259 264 275 282 280 285 269 259
67 58 288 264 186 169 145 261 254 216 183 209 223 224 225 228 219 214 208 205 201 195 207 225 235 237 251 247 242 239 240 244 249 253 263 269 265 263 270 270 260 254 254 257 266 265 277 278 262
53 202 244 276 202 167 191 250 267 219 194 221 231 228 224 228 231 223 210 201 195 193 202 221 228 233 250 257 251 243 243 247 249 249 253 259 259 255 250 264 262 247 243 245 264 264 245 269 277
202 212 236 243 233 189 233 257 270 258 224 227 231 227 219 221 228 218 208 198 193 198 206 219 237 249 258 274 276 265 258 255 250 247 249 253 254 254 248 256 262 247 241 247 246 254 252 249 265
171 187 243 253 241 228 246 263 270 259 242 237 232 224 222 227 232 214 205 195 193 208 218 226 237 255 257 277 272 256 256 253 253 249 249 251 253 255 247 258 255 249 240 238 240 246 251 251 248
201 230 258 283 299 259 273 275 270 252 231 222 217 218 218 220 220 210 203 210 212 218 229 236 238 249 248 244 241 233 239 250 246 251 257 250 252 255 259 254 251 247 244 242 235 228 246 252 217
221 210 224 250 323 327 318 300 282 271 240 226 218 216 212 201 199 209 215 226 225 231 230 237 244 250 253 250 252 271 284 284 276 262 257 249 248 248 252 257 258 251 237 239 236 221 233 241 234
230 213 189 193 25 300 32 295 288 278 280 242 231 219 213 205 197 203 209 226 231 236 236 237 247 254 257 251 243 247 258 265 263 257 255 260 251 247 245 247 253 250 238 238 239 234 224 223 236
202 172 133 134 130 318 274 232 281 287 258 249 236 224 217 206 196 203 213 222 234 237 238 242 249 256 259 251 240 247 258 258 265 267 265 263 257 249 247 244 246 247 239 238 240 237 229 221 226
135 65 56 53 72 285 225 190 274 237 224 237 231 225 219 209 205 213 227 236 250 255 253 250 250 259 260 256 252 249 256 262 267 270 267 265 262 255 249 251 248 249 240 235 236 233 229 227 229
99 93 40 358 353 253 217 206 253 247 227 215 212 214 213 208 212 231 241 249 254 259 258 258 259 263 261 256 254 252 254 256 258 262 262 265 268 267 260 257 253 252 245 240 238 236 233 227 227
173 147 159 198 230 274 268 237 255 262 254 230 210 197 203 216 222 229 237 244 252 257 257 259 262 266 266 261 261 260 259 256 256 254 257 260 261 262 260 259 259 256 251 247 239 239 237 231 227
147 185 161 133 151 275 267 278 297 283 287 221 193 195 219 229 235 242 247 248 251 255 254 251 258 269 270 265 265 267 262 257 260 262 259 260 260 263 261 260 263 261 255 250 242 242 242 237 230
147 146 117 135 168 254 280 265 252 257 242 237 221 224 238 247 254 255 252 250 250 251 255 258 258 260 267 270 268 275 272 267 267 268 266 265 265 266 266 264 264 260 256 253 246 244 243 239 236
152 160 148 143 168 180 259 265 229 225 220 217 226 229 233 245 254 259 257 249 249 259 261 267 269 269 273 273 274 279 280 276 273 270 269 267 267 266 265 264 264 262 258 253 248 245 246 242 242
181 178 155 164 217 198 218 268 268 243 232 219 231 241 250 253 260 259 259 265 268 269 268 267 269 272 273 274 276 277 281 282 280 276 272 270 270 269 267 266 264 260 258 252 247 248 247 243 242